Precipitable_Water
1.14 1.08 1.08 0.99 0.99 1.02 1.03 1.00 0.98 0.94 0.91 0.88 0.80 0.65 0.63 0.62 0.61 0.61 0.66 0.74 0.77 0.76 0.74 0.73 0.69 0.67 0.61 0.57 0.55 0.56 0.60 0.59 0.58 0.60 0.55 0.57 0.61 0.59 0.57 0.55 0.53 0.50 0.50
1.10 1.11 1.09 1.00 0.98 1.03 1.06 1.03 1.00 0.91 0.89 0.86 0.71 0.66 0.62 0.60 0.59 0.60 0.68 0.77 0.75 0.74 0.74 0.72 0.69 0.68 0.66 0.63 0.60 0.61 0.57 0.57 0.57 0.58 0.55 0.59 0.63 0.59 0.58 0.56 0.52 0.50 0.50
1.12 1.08 1.03 1.01 0.98 1.03 1.08 1.06 0.99 0.93 0.87 0.84 0.66 0.64 0.61 0.60 0.59 0.60 0.62 0.67 0.71 0.64 0.61 0.63 0.62 0.60 0.60 0.64 0.59 0.48 0.48 0.48 0.47 0.47 0.51 0.60 0.60 0.56 0.52 0.48 0.46 0.44 0.43
1.12 1.07 1.02 1.01 1.01 1.05 1.09 1.06 1.00 0.92 0.86 0.75 0.63 0.60 0.59 0.60 0.60 0.59 0.60 0.62 0.61 0.59 0.59 0.61 0.60 0.57 0.58 0.58 0.51 0.51 0.51 0.48 0.47 0.49 0.49 0.48 0.49 0.48 0.47 0.45 0.42 0.40 0.40
1.10 1.06 1.03 1.03 1.01 1.03 1.08 1.04 0.98 0.94 0.83 0.68 0.62 0.60 0.56 0.57 0.60 0.66 0.66 0.66 0.65 0.63 0.64 0.64 0.60 0.60 0.58 0.56 0.53 0.53 0.55 0.53 0.49 0.45 0.43 0.42 0.41 0.39 0.37 0.36 0.36 0.36 0.37
1.17 1.11 1.07 1.05 1.02 1.00 1.03 1.01 1.05 0.95 0.78 0.69 0.62 0.57 0.56 0.58 0.61 0.68 0.70 0.70 0.69 0.68 0.68 0.66 0.66 0.65 0.60 0.59 0.58 0.57 0.59 0.58 0.53 0.49 0.44 0.40 0.38 0.37 0.34 0.33 0.32 0.34 0.35
1.21 1.16 1.08 1.04 1.05 1.02 1.04 1.09 1.02 0.85 0.76 0.70 0.59 0.56 0.55 0.59 0.61 0.64 0.69 0.72 0.71 0.71 0.70 0.68 0.68 0.65 0.62 0.64 0.65 0.65 0.65 0.59 0.56 0.51 0.46 0.41 0.37 0.35 0.33 0.33 0.34 0.34 0.34
1.16 1.16 1.11 1.07 1.07 1.07 1.07 1.07 0.95 0.85 0.80 0.75 0.61 0.58 0.50 0.57 0.66 0.71 0.72 0.70 0.70 0.73 0.71 0.70 0.68 0.65 0.65 0.67 0.67 0.64 0.63 0.62 0.59 0.53 0.48 0.44 0.39 0.36 0.35 0.34 0.34 0.34 0.34
1.14 1.16 1.17 1.14 1.17 1.16 1.09 1.05 1.02 0.95 0.88 0.87 0.80 0.68 0.58 0.54 0.64 0.75 0.77 0.76 0.74 0.73 0.72 0.73 0.73 0.72 0.70 0.69 0.67 0.66 0.64 0.61 0.59 0.55 0.49 0.45 0.42 0.40 0.37 0.36 0.35 0.35 0.35
1.10 1.09 1.13 1.21 1.24 1.21 1.12 1.09 1.09 1.05 1.00 0.91 0.92 0.88 0.82 0.75 0.64 0.63 0.75 0.78 0.82 0.79 0.77 0.77 0.75 0.73 0.71 0.67 0.66 0.65 0.62 0.62 0.55 0.52 0.48 0.46 0.46 0.43 0.39 0.38 0.37 0.36 0.36
1.08 1.10 1.17 1.22 1.18 1.18 1.15 1.16 1.12 1.09 1.05 0.98 0.94 0.90 0.86 0.82 0.79 0.72 0.67 0.72 0.76 0.75 0.75 0.74 0.72 0.70 0.67 0.65 0.63 0.59 0.56 0.54 0.51 0.48 0.45 0.46 0.47 0.45 0.42 0.40 0.39 0.37 0.37
0.99 1.03 1.07 1.10 1.15 1.19 1.18 1.20 1.17 1.15 1.10 1.01 0.93 0.90 0.87 0.82 0.79 0.79 0.75 0.76 0.74 0.72 0.74 0.69 0.68 0.67 0.63 0.60 0.57 0.52 0.49 0.47 0.44 0.42 0.43 0.44 0.46 0.46 0.44 0.42 0.41 0.39 0.39
0.90 0.90 0.94 1.03 1.11 1.19 1.21 1.21 1.14 1.10 1.04 0.99 0.97 0.93 0.95 0.92 0.90 0.88 0.84 0.82 0.71 0.70 0.69 0.70 0.70 0.65 0.62 0.57 0.51 0.47 0.44 0.38 0.35 0.35 0.37 0.38 0.40 0.43 0.42 0.43 0.43 0.43 0.43
0.88 0.95 1.02 1.11 1.15 1.18 1.18 1.14 1.09 1.09 1.06 1.05 0.97 0.96 0.97 0.92 0.97 0.95 0.88 0.76 0.66 0.66 0.67 0.67 0.69 0.66 0.59 0.54 0.49 0.43 0.38 0.35 0.35 0.36 0.36 0.37 0.38 0.40 0.41 0.43 0.44 0.44 0.46
1.04 1.10 1.15 1.13 1.16 1.22 1.20 1.17 1.13 1.09 1.07 0.97 1.01 1.03 0.90 0.92 0.96 0.95 0.86 0.78 0.70 0.56 0.56 0.63 0.58 0.61 0.55 0.50 0.44 0.39 0.37 0.36 0.38 0.39 0.38 0.40 0.41 0.41 0.42 0.43 0.44 0.43 0.43
1.11 1.13 1.18 1.21 1.20 1.22 1.25 1.22 1.16 1.14 1.08 1.05 0.99 1.05 0.88 0.90 0.89 0.85 0.80 0.76 0.68 0.60 0.50 0.58 0.56 0.54 0.51 0.47 0.42 0.39 0.38 0.39 0.40 0.39 0.40 0.40 0.40 0.41 0.42 0.43 0.44 0.45 0.42
1.22 1.22 1.21 1.24 1.27 1.30 1.31 1.17 1.13 1.09 1.05 1.02 1.01 0.95 0.89 0.91 0.82 0.79 0.80 0.74 0.67 0.61 0.52 0.55 0.57 0.54 0.49 0.42 0.39 0.39 0.40 0.38 0.38 0.39 0.38 0.40 0.39 0.40 0.40 0.40 0.39 0.39 0.37
1.22 1.29 1.30 1.28 1.33 1.34 1.27 1.22 1.13 1.11 1.05 0.99 1.00 0.97 0.88 0.86 0.80 0.79 0.72 0.68 0.64 0.62 0.56 0.51 0.53 0.48 0.43 0.40 0.37 0.36 0.36 0.37 0.36 0.36 0.36 0.36 0.37 0.38 0.39 0.39 0.39 0.36 0.35
1.32 1.40 1.35 1.25 1.22 1.24 1.22 1.21 1.15 1.09 1.04 0.97 0.94 0.95 0.91 0.85 0.78 0.76 0.73 0.70 0.64 0.61 0.58 0.51 0.45 0.43 0.38 0.35 0.34 0.35 0.34 0.34 0.35 0.36 0.36 0.37 0.38 0.37 0.37 0.36 0.35 0.33 0.35
1.31 1.05 1.07 1.10 1.14 1.21 1.19 1.15 1.07 1.04 1.02 0.98 0.97 0.95 0.89 0.78 0.75 0.73 0.70 0.65 0.59 0.56 0.53 0.45 0.38 0.34 0.33 0.35 0.35 0.31 0.30 0.31 0.30 0.33 0.34 0.35 0.35 0.36 0.33 0.35 0.34 0.36 0.35
1.28 1.14 1.03 1.08 1.08 1.12 1.11 1.07 1.04 1.00 0.96 0.93 0.95 0.91 0.81 0.78 0.77 0.67 0.62 0.57 0.55 0.51 0.46 0.38 0.32 0.31 0.30 0.30 0.29 0.30 0.27 0.27 0.26 0.26 0.25 0.27 0.33 0.31 0.34 0.34 0.32 0.32 0.33
1.09 1.10 1.05 1.04 1.04 1.07 1.09 1.09 1.04 0.97 0.92 0.90 0.88 0.78 0.75 0.73 0.69 0.63 0.59 0.58 0.55 0.48 0.40 0.32 0.31 0.29 0.29 0.29 0.28 0.25 0.24 0.22 0.20 0.28 0.25 0.25 0.30 0.28 0.31 0.30 0.31 0.32 0.31
1.05 0.99 0.97 0.98 1.00 1.03 1.08 1.03 0.99 0.93 0.91 0.88 0.82 0.73 0.69 0.66 0.63 0.58 0.57 0.55 0.52 0.44 0.39 0.35 0.30 0.28 0.26 0.26 0.27 0.25 0.25 0.25 0.25 0.28 0.29 0.24 0.27 0.26 0.29 0.32 0.31 0.29 0.28
0.93 0.93 0.94 0.97 0.98 1.03 1.01 0.98 0.93 0.91 0.84 0.78 0.69 0.64 0.66 0.62 0.59 0.58 0.56 0.48 0.41 0.36 0.33 0.29 0.27 0.29 0.29 0.30 0.30 0.30 0.30 0.30 0.31 0.31 0.32 0.22 0.25 0.23 0.26 0.31 0.30 0.31 0.30
0.88 0.89 0.90 0.89 0.89 0.92 0.94 0.90 0.88 0.79 0.69 0.69 0.68 0.65 0.66 0.61 0.57 0.50 0.41 0.33 0.29 0.29 0.32 0.33 0.33 0.32 0.34 0.34 0.34 0.33 0.29 0.28 0.24 0.24 0.28 0.25 0.23 0.21 0.22 0.27 0.31 0.30 0.28
0.81 0.81 0.79 0.80 0.82 0.82 0.82 0.77 0.73 0.70 0.69 0.67 0.65 0.62 0.56 0.49 0.44 0.37 0.31 0.28 0.29 0.31 0.33 0.30 0.30 0.31 0.31 0.30 0.30 0.30 0.29 0.26 0.25 0.23 0.25 0.23 0.23 0.24 0.21 0.29 0.28 0.27 0.27
Wind_Speed
25 24 22 20 18 17 16 15 14 13 12 11 10 10 9 8 8 7 7 8 7 7 8 8 8 9 11 12 13 14 15 15 16 16 17 18 19 20 20 21 22 23 23
25 23 22 20 19 18 17 15 14 12 12 11 11 10 9 9 8 8 7 8 9 9 9 10 10 11 13 14 15 16 16 17 17 18 19 19 20 21 22 22 24 25 26
24 22 22 21 20 19 18 17 14 13 12 12 11 10 10 9 9 9 9 9 10 11 11 12 13 14 15 16 17 17 17 18 19 19 20 20 22 23 24 25 26 27 28
23 22 22 21 21 19 19 18 16 14 12 12 11 11 11 10 10 10 11 12 13 13 14 15 15 16 17 17 17 18 19 20 21 21 22 24 25 26 26 27 29 30 30
23 23 22 21 21 20 19 17 16 15 13 13 12 12 12 12 12 12 13 14 15 16 17 17 18 18 19 20 21 21 22 23 24 24 25 26 27 28 29 30 31 31 32
24 23 22 22 22 21 19 17 16 15 14 14 14 14 14 14 14 15 16 17 18 18 19 20 21 22 23 23 24 25 26 26 27 27 27 29 30 31 31 32 32 33 33
24 23 22 22 21 21 19 18 16 15 15 15 15 16 16 17 18 18 19 19 20 21 22 23 24 24 24 25 26 27 27 27 29 29 31 32 32 32 32 33 34 34 36
24 23 23 22 21 21 20 19 18 17 16 17 16 16 17 19 20 21 21 22 23 24 25 26 26 27 28 28 28 28 30 30 32 32 33 33 33 34 34 34 35 36 38
24 24 23 22 22 22 22 21 20 20 19 20 20 19 19 21 21 22 24 25 26 26 27 28 29 30 30 31 31 32 33 34 34 34 35 36 35 35 35 36 37 38 40
23 23 22 22 22 23 23 23 22 22 21 22 23 24 23 22 22 23 25 26 28 29 29 29 30 30 31 31 34 36 37 37 36 37 37 36 36 36 37 38 40 41 43
22 23 23 23 23 24 25 25 24 25 24 24 25 25 27 27 27 27 27 27 29 29 29 30 30 31 32 34 36 37 38 38 39 38 38 38 38 39 40 41 42 44 46
22 23 24 24 24 25 26 26 26 27 27 27 27 27 29 29 29 29 29 29 29 29 29 29 31 33 34 36 37 38 38 38 38 38 39 40 41 42 43 44 45 47 49
23 24 25 26 26 27 26 27 27 28 28 28 29 30 28 30 32 30 31 30 30 30 31 33 33 33 35 36 38 38 38 38 38 39 40 41 43 44 45 47 48 50 51
24 25 26 27 28 27 27 27 28 28 28 30 29 30 31 30 29 32 32 32 32 32 33 34 34 36 37 38 38 38 39 39 40 41 42 43 45 46 48 49 50 51 53
25 26 27 29 29 29 28 28 28 28 28 28 30 28 30 30 29 30 30 31 31 33 34 34 35 36 37 38 39 39 40 41 43 44 45 46 47 48 49 51 51 53 54
27 28 29 30 32 32 31 29 29 29 30 30 29 30 28 28 29 29 30 31 32 34 35 35 36 37 38 39 41 41 43 44 45 45 46 47 48 50 52 52 53 56 58
30 32 33 33 33 32 33 27 29 30 30 31 31 30 30 30 30 31 32 33 34 35 36 37 38 39 40 41 42 43 44 45 46 47 48 49 50 51 53 54 56 57 57
34 36 36 36 35 32 32 33 31 31 31 30 31 32 31 32 32 32 33 34 36 37 38 40 40 41 42 42 43 44 45 47 48 49 50 51 52 54 55 57 57 57 57
33 36 40 37 33 31 31 32 32 31 32 31 32 33 33 33 33 34 36 37 38 38 39 41 42 42 43 44 45 46 47 48 50 51 52 53 54 55 56 57 57 56 55
27 22 21 23 27 29 30 30 31 31 32 33 33 31 32 34 35 37 37 38 39 40 42 43 43 44 44 45 46 48 49 50 51 52 53 55 56 56 57 56 55 53 50
28 26 25 26 27 28 30 30 31 31 33 34 33 32 35 35 36 37 38 40 41 42 43 44 45 46 46 46 47 49 51 52 53 53 54 54 55 56 55 54 53 51 47
27 28 28 29 30 31 31 32 32 32 32 30 30 34 35 36 36 38 39 41 42 43 44 45 46 47 48 49 50 51 52 52 52 52 53 54 53 54 53 52 50 46 42
29 30 30 31 30 32 30 31 32 32 31 29 33 36 36 37 39 40 42 43 44 45 46 47 48 48 50 50 51 52 52 53 54 54 55 57 54 54 51 49 46 41 39
29 30 29 29 30 29 31 30 30 30 29 33 34 36 37 39 41 42 44 45 46 47 48 48 49 50 51 51 52 53 54 55 55 55 54 55 53 52 49 46 42 39 38
27 28 29 29 28 27 28 29 29 32 33 35 36 37 40 42 42 44 45 46 47 47 47 48 49 51 51 52 53 53 53 54 55 55 53 53 52 49 46 43 39 36 35
27 27 26 25 26 27 28 31 32 33 34 36 37 39 41 42 43 45 46 47 47 48 49 49 50 51 51 52 52 52 53 53 54 54 51 49 48 45 40 36 34 32 31
Wind_Direction
196 197 203 206 211 211 212 217 223 226 226 228 236 236 233 232 236 244 248 247 259 270 281 292 299 307 314 316 317 317 317 315 317 315 317 318 317 316 317 316 316 316 315
197 203 205 208 213 209 211 217 216 223 225 230 236 232 229 234 242 249 253 252 264 272 280 287 292 302 308 311 313 314 313 313 314 315 315 315 317 316 314 313 314 313 313
200 205 206 211 211 211 212 213 220 224 228 232 232 230 230 235 244 251 256 259 268 274 280 286 290 297 303 307 310 312 314 313 312 312 311 312 313 313 311 310 311 310 310
205 206 209 211 209 211 214 218 224 228 228 230 230 231 235 243 251 256 261 267 273 276 281 286 289 294 299 305 306 309 312 312 310 309 308 308 308 308 309 308 309 308 307
209 211 212 214 212 214 216 218 224 226 229 234 234 237 242 250 255 263 267 271 276 278 281 284 287 291 294 299 301 303 308 309 306 306 306 306 306 306 306 307 308 307 306
213 215 213 213 213 213 215 219 221 228 234 235 238 244 249 256 262 268 273 276 278 279 282 283 286 288 290 294 296 298 301 303 304 303 304 305 304 304 305 305 306 306 306
214 213 211 210 209 211 218 221 226 231 239 240 243 251 256 261 266 271 274 278 280 281 281 282 284 287 289 291 294 297 299 300 302 301 301 303 303 303 303 304 305 305 305
207 205 207 209 213 217 224 227 231 237 245 244 251 257 264 268 270 272 275 278 282 283 282 283 283 285 287 289 291 293 297 298 299 299 300 300 301 301 301 302 303 304 304
207 205 210 216 222 228 229 232 237 242 248 250 255 261 268 270 275 275 276 279 281 283 282 283 284 284 285 288 288 292 294 296 296 297 298 298 297 298 299 301 302 303 303
203 210 217 224 228 230 236 238 242 248 253 256 259 262 268 273 275 278 278 280 282 283 284 285 285 286 287 287 289 292 293 294 295 296 296 296 295 296 297 299 300 302 303
213 220 224 228 234 236 240 242 246 251 257 260 262 267 269 273 274 278 280 282 283 283 285 287 285 287 287 290 292 294 294 294 294 294 294 295 295 295 296 297 299 300 302
224 228 232 237 239 242 244 248 250 254 259 263 265 268 273 273 274 275 278 280 284 283 284 286 288 289 290 291 293 295 295 295 294 293 293 294 294 295 296 297 298 300 301
232 236 239 242 244 246 248 250 252 257 261 263 268 268 275 277 271 275 275 279 281 282 285 287 288 289 291 293 294 295 295 295 295 295 294 295 295 295 296 297 298 299 300
241 244 244 246 245 247 250 251 255 260 265 263 267 272 274 278 272 273 271 276 280 284 287 289 289 289 291 293 294 294 294 294 295 295 294 295 296 295 296 297 298 299 300
247 249 248 247 247 250 252 252 255 259 264 269 264 272 276 273 273 275 273 276 282 286 289 290 291 291 291 292 293 294 294 294 295 295 295 295 296 296 296 296 297 298 300
252 253 252 252 251 250 251 253 255 261 265 267 268 269 275 271 275 275 276 279 283 285 289 290 291 292 292 292 293 293 294 294 295 295 295 295 296 296 296 296 297 299 300
258 257 256 256 252 251 243 254 259 260 265 266 267 267 275 272 275 277 279 281 283 286 289 291 292 293 292 293 293 294 295 295 295 295 296 296 296 297 298 297 298 299 300
262 261 259 258 254 251 254 254 261 262 265 267 266 266 275 273 276 278 280 282 285 287 289 292 293 293 293 294 294 295 296 295 296 296 296 297 297 298 299 299 299 299 299
270 270 262 263 250 256 257 258 261 263 264 267 270 266 272 275 275 279 280 283 287 289 290 292 293 294 294 295 295 296 296 297 297 297 298 297 298 299 299 299 298 298 298
283 278 263 259 256 259 259 261 263 264 267 269 270 268 273 276 277 281 280 284 287 289 291 292 293 294 294 295 296 297 297 298 298 298 299 298 298 298 299 298 298 297 296
268 271 268 265 265 263 262 263 265 269 269 274 263 271 277 279 279 283 283 285 287 289 291 292 293 294 294 295 296 297 297 299 299 299 300 300 299 300 298 298 297 296 295
270 270 271 268 268 266 265 263 267 271 273 267 260 277 279 280 282 285 286 287 288 290 291 292 293 293 295 295 296 297 298 299 300 300 300 301 301 301 299 297 296 294 292
269 272 271 269 267 269 262 265 272 272 266 268 271 278 279 281 284 286 288 289 290 291 291 292 293 293 295 296 297 297 297 298 299 300 301 301 302 300 298 297 294 290 289
273 273 271 269 270 263 268 268 270 272 269 274 278 281 281 283 286 287 288 290 290 291 292 293 293 294 295 296 296 296 297 298 298 300 300 301 302 299 298 294 290 287 287
276 274 273 271 267 267 268 270 267 273 274 278 280 282 283 286 287 289 290 290 291 292 292 293 294 295 295 296 296 296 297 298 299 300 300 299 301 300 296 292 287 284 285
276 275 272 270 268 268 269 272 274 273 278 280 282 285 287 287 288 289 290 290 291 292 293 294 294 295 295 296 296 296 297 297 298 300 300 298 299 300 297 290 285 282 283